Davenport, IA

9:14 PM CDT on June 28, 2017 (GMT -0500)
Davenport Municipal

Weather History for KDVN - September, 2012

Change the Weather History Date:

Wednesday, September 5, 2012

  Actual Average Record
Temperature  
Mean Temperature 74 °F 67 °F  
Max Temperature 85 °F 79 °F 94 °F (1960)
Min Temperature 62 °F 56 °F 46 °F (2003)
Degree Days  
Heating Degree Days 0 1  
Month to date heating degree days 0 5  
Since 1 July heating degree days 13 19  
Cooling Degree Days 9 4  
Month to date cooling degree days 54 20  
Year to date cooling degree days 1085 724  
Growing Degree Days 23 (Base 50)    
Moisture  
Dew Point 63 °F    
Average Humidity 71    
Maximum Humidity 90    
Minimum Humidity 51    
Precipitation  
Precipitation 0.70 in 0.10 in 2.21 in (1971)
Month to date precipitation 0.78 0.48  
Year to date precipitation 22.77 26.30  
Snow  
Snow 0.00 in - - ()
Month to date snowfall 0.0  
Since 1 July snowfall 0.0  
Since 1 September snowfall 0.0  
Snow Depth 0.00 in    
Sea Level Pressure  
Sea Level Pressure 29.85 in    
Wind  
Wind Speed 9 mph (WNW)    
Max Wind Speed 36 mph    
Max Gust Speed 51 mph    
Visibility 9 miles    
Events Rain , Thunderstorm    
T = Trace of Precipitation, MM = Missing Value Source: NWS Daily Summary

Daily Weather History Graph

Daily Weather History Graph

Search for Another Location

Airport or City:

Trip Planner

Search our weather history database for the weather conditions in past years. The results will help you decide how hot, cold, wet, or windy it might be!

Date:

Astronomy

Sep. 05, 2012 Rise Set
Actual Time 6:32 AM CDT 7:27 PM CDT
Civil Twilight 6:04 AM CDT 7:56 PM CDT
Nautical Twilight 5:31 AM CDT 8:29 PM CDT
Astronomical Twilight 4:56 AM CDT 9:04 PM CDT
Moon 9:52 PM CDT (9/5) 11:42 AM CDT (9/5)
Length of Visible Light 13h 51m
Length of Day
12h 55m
Waning Gibbous, 76% of the Moon is Illuminated
Sep 5
Waning Gibbous
Sep 8
Last Quarter
Sep 15
New
Sep 22
First Quarter
Sep 29
Full

Hourly Weather History & Observations

Time (CDT) Temp. Heat Index Dew Point Humidity Pressure Visibility Wind Dir Wind Speed Gust Speed Precip Events Conditions
12:52 AM 68.0 °F - 57.9 °F 70% 29.85 in 10.0 mi SE 10.4 mph - N/A   Clear
1:52 AM 68.0 °F - 57.9 °F 70% 29.81 in 10.0 mi SSE 9.2 mph - N/A   Clear
2:52 AM 66.9 °F - 59.0 °F 76% 29.80 in 10.0 mi SSE 9.2 mph - N/A   Clear
3:52 AM 66.9 °F - 59.0 °F 76% 29.87 in 10.0 mi NNW 17.3 mph 29.9 mph N/A   Scattered Clouds
4:15 AM 69.8 °F - 57.2 °F 64% 29.94 in 9.0 mi NNW 33.4 mph 48.3 mph N/A Thunderstorm Overcast
4:27 AM 64.4 °F - 60.8 °F 88% 29.96 in 0.8 mi North 28.8 mph 44.9 mph 0.25 in Rain , Thunderstorm Heavy Rain
4:36 AM 62.6 °F - 60.8 °F 94% 29.97 in 1.0 mi North 25.3 mph 33.4 mph 0.46 in Rain , Thunderstorm Heavy Rain
4:42 AM 62.6 °F - 60.8 °F 94% 29.97 in 2.0 mi North 17.3 mph 33.4 mph 0.51 in Rain , Thunderstorm Heavy Rain
4:52 AM 63.0 °F - 61.0 °F 93% 29.98 in 3.0 mi North 16.1 mph 28.8 mph 0.51 in Rain , Thunderstorm Heavy Rain
5:26 AM 62.6 °F - 60.8 °F 94% 29.98 in 5.0 mi North 16.1 mph 21.9 mph N/A Rain , Thunderstorm Rain
5:52 AM 63.0 °F - 61.0 °F 93% 29.97 in 4.0 mi NNE 10.4 mph - N/A Rain , Thunderstorm Thunderstorms and Rain
6:21 AM 62.6 °F - 60.8 °F 94% 29.94 in 10.0 mi ENE 12.7 mph 20.7 mph N/A Rain Light Rain
6:52 AM 66.9 °F - 61.0 °F 81% 29.88 in 10.0 mi ENE 13.8 mph 24.2 mph N/A Thunderstorm Scattered Clouds
7:11 AM 64.4 °F - 60.8 °F 88% 29.82 in 7.0 mi SE 25.3 mph 32.2 mph N/A Rain , Thunderstorm Light Rain
7:41 AM 64.4 °F - 60.8 °F 88% 29.82 in 10.0 mi ESE 8.1 mph - N/A   Partly Cloudy
7:52 AM 64.9 °F - 62.1 °F 90% 29.81 in 10.0 mi ESE 5.8 mph - N/A   Clear
8:52 AM 70.0 °F - 63.0 °F 78% 29.79 in 10.0 mi SE 5.8 mph - N/A   Clear
9:34 AM 69.8 °F - 64.4 °F 83% 29.81 in 10.0 mi Calm Calm - 0.00 in Thunderstorm Partly Cloudy
9:49 AM 73.4 °F - 64.4 °F 73% 29.80 in 10.0 mi South 6.9 mph - 0.00 in   Clear
9:52 AM 73.0 °F - 64.0 °F 73% 29.78 in 10.0 mi SSW 9.2 mph - 0.00 in   Clear
10:52 AM 77.0 °F - 63.0 °F 62% 29.77 in 10.0 mi SSW 6.9 mph - N/A   Clear
11:52 AM 84.0 °F 86.3 °F 66.0 °F 55% 29.79 in 10.0 mi West 11.5 mph 16.1 mph N/A   Clear
12:52 PM 84.0 °F 85.4 °F 64.0 °F 51% 29.80 in 10.0 mi SSW 11.5 mph - N/A   Clear
1:52 PM 84.0 °F 86.3 °F 66.0 °F 55% 29.79 in 10.0 mi SW 17.3 mph 23.0 mph N/A   Scattered Clouds
2:52 PM 84.0 °F 86.5 °F 66.9 °F 56% 29.78 in 10.0 mi WSW 16.1 mph 20.7 mph N/A   Clear
3:52 PM 84.0 °F 86.5 °F 66.9 °F 56% 29.78 in 10.0 mi West 10.4 mph - N/A   Clear
4:52 PM 84.0 °F 86.5 °F 66.9 °F 56% 29.79 in 10.0 mi West 11.5 mph 17.3 mph N/A   Scattered Clouds
5:52 PM 82.9 °F 85.4 °F 66.9 °F 58% 29.80 in 10.0 mi WNW 6.9 mph - N/A   Clear
6:52 PM 81.0 °F 84.1 °F 69.1 °F 67% 29.80 in 10.0 mi West 3.5 mph - N/A   Mostly Cloudy
7:52 PM 75.0 °F - 69.1 °F 82% 29.82 in 10.0 mi WNW 4.6 mph - N/A   Mostly Cloudy
8:52 PM 71.1 °F - 68.0 °F 90% 29.83 in 10.0 mi Calm Calm - N/A   Clear
9:52 PM 71.1 °F - 66.9 °F 87% 29.83 in 10.0 mi North 5.8 mph - N/A   Partly Cloudy
10:52 PM 71.1 °F - 66.9 °F 87% 29.83 in 10.0 mi NNE 3.5 mph - N/A   Scattered Clouds
11:52 PM 69.1 °F - 66.0 °F 90% 29.85 in 10.0 mi Calm Calm - N/A   Scattered Clouds